Simultaneous Nadir Overpasses (SNOs) Predictions

Prediction of SNOs between LANDSAT-8 and METOP-A Satellite Orbit:

Table of predicted SNOs for the next 14.0 days since TLE Epoch: 6/18/2016
Index Date (LANDSAT-8) Time (LANDSAT-8) Lat,Lon (LANDSAT-8) SZA (LANDSAT-8 ) Date (METOP-A) Time (METOP-A) Lat,Lon (METOP-A) SZA (METOP-A ) Distance(km) Time Diff (sec)
1 06/20/2016 01:57:22 81.18,-168.36 59.98 06/20/2016 01:57:02 81.18,-168.19 59.99 2.77 20
2 06/20/2016 02:46:48 -81.20, -0.40 119.98 06/20/2016 02:47:41 -81.20, -0.25 119.94 2.63 53
3 06/22/2016 21:31:38 81.19,-101.91 59.98 06/22/2016 21:31:23 81.18,-101.83 59.98 1.41 15
4 06/22/2016 22:21:05 -81.18, 65.70 120.03 06/22/2016 22:22:03 -81.19, 65.78 119.99 1.54 58
5 06/25/2016 17:05:55 81.18, -35.50 60.02 06/25/2016 17:05:45 81.18, -35.48 60.02 0.48 10
6
